• In Portugal
  • List of Countries
  • For 7 days
  • Water Temperature
  • Satellite Maps
  • Weather Map
  • Weather Widgets
  • user-avatar
    Login

    Hourly Weather Maan

    Today, 18 July, Wednesday

    Time Temperature Precipitation Wind Pressure Humidity
    00:00 +22°C° 0 mm 3 mps 635 mmHg 42%
    01:00 +23°C° 0 mm 2 mps 635 mmHg 43%
    02:00 +21°C° 0 mm 2 mps 634 mmHg 44%
    03:00 +20°C° 0 mm 2 mps 634 mmHg 44%
    04:00 +20°C° 0 mm 2 mps 634 mmHg 44%
    05:00 +21°C° 0 mm 1 mps 634 mmHg 43%
    06:00 +21°C° 0 mm 2 mps 635 mmHg 39%
    07:00 +23°C° 0 mm 2 mps 635 mmHg 34%
    08:00 +24°C° 0 mm 2 mps 635 mmHg 30%
    09:00 +26°C° 0 mm 2 mps 636 mmHg 26%
    10:00 +27°C° 0 mm 2 mps 636 mmHg 22%
    11:00 +29°C° 0 mm 3 mps 637 mmHg 19%
    12:00 +30°C° 0 mm 3 mps 637 mmHg 17%
    13:00 +32°C° 0 mm 4 mps 637 mmHg 15%
    14:00 +33°C° 0 mm 4 mps 637 mmHg 13%
    15:00 +32°C° 0 mm 5 mps 636 mmHg 13%
    16:00 +32°C° 0 mm 5 mps 636 mmHg 13%
    17:00 +32°C° 0 mm 5 mps 636 mmHg 13%
    18:00 +29°C° 0 mm 5 mps 636 mmHg 15%
    19:00 +28°C° 0 mm 4 mps 636 mmHg 17%
    20:00 +27°C° 0 mm 4 mps 635 mmHg 19%
    21:00 +26°C° 0 mm 3 mps 635 mmHg 22%
    22:00 +25°C° 0 mm 3 mps 635 mmHg 26%
    23:00 +24°C° 0 mm 3 mps 635 mmHg 29%

    Tomorrow, 19 July, Thursday

    Time Temperature Precipitation Wind Pressure Humidity
    00:00 +24°C° 0 mm 2 mps 635 mmHg 30%
    01:00 +23°C° 0 mm 2 mps 635 mmHg 31%
    02:00 +21°C° 0 mm 2 mps 634 mmHg 32%
    03:00 +21°C° 0 mm 2 mps 634 mmHg 32%
    04:00 +21°C° 0 mm 1 mps 634 mmHg 31%
    05:00 +20°C° 0 mm 1 mps 634 mmHg 30%
    06:00 +22°C° 0 mm 1 mps 634 mmHg 27%
    07:00 +24°C° 0 mm 1 mps 635 mmHg 23%
    08:00 +25°C° 0 mm 1 mps 636 mmHg 20%
    09:00 +27°C° 0 mm 2 mps 636 mmHg 18%
    10:00 +28°C° 0 mm 2 mps 636 mmHg 16%
    11:00 +30°C° 0 mm 2 mps 637 mmHg 14%
    12:00 +31°C° 0 mm 3 mps 637 mmHg 13%
    13:00 +33°C° 0 mm 4 mps 637 mmHg 12%
    14:00 +34°C° 0 mm 4 mps 637 mmHg 11%
    15:00 +33°C° 0 mm 5 mps 637 mmHg 12%
    16:00 +33°C° 0 mm 5 mps 636 mmHg 13%
    17:00 +33°C° 0 mm 5 mps 636 mmHg 14%
    18:00 +30°C° 0 mm 5 mps 636 mmHg 18%
    19:00 +29°C° 0 mm 5 mps 636 mmHg 22%
    20:00 +27°C° 0 mm 4 mps 636 mmHg 27%
    21:00 +26°C° 0 mm 4 mps 636 mmHg 32%
    22:00 +25°C° 0 mm 3 mps 636 mmHg 36%
    23:00 +24°C° 0 mm 3 mps 636 mmHg 41%

    Day after tomorrow, 20 July, Friday

    Time Temperature Precipitation Wind Pressure Humidity
    00:00 +24°C° 0 mm 3 mps 635 mmHg 42%
    01:00 +22°C° 0 mm 3 mps 635 mmHg 44%
    02:00 +23°C° 0 mm 2 mps 635 mmHg 45%
    03:00 +21°C° 0 mm 2 mps 635 mmHg 46%
    04:00 +21°C° 0 mm 2 mps 635 mmHg 47%
    05:00 +20°C° 0 mm 2 mps 634 mmHg 48%
    06:00 +21°C° 0 mm 2 mps 635 mmHg 44%
    07:00 +23°C° 0 mm 2 mps 635 mmHg 41%
    08:00 +24°C° 0 mm 2 mps 636 mmHg 38%
    09:00 +26°C° 0 mm 3 mps 636 mmHg 34%
    10:00 +27°C° 0 mm 3 mps 637 mmHg 30%
    11:00 +28°C° 0 mm 3 mps 637 mmHg 26%
    12:00 +29°C° 0 mm 4 mps 637 mmHg 24%
    13:00 +30°C° 0 mm 4 mps 637 mmHg 22%
    14:00 +32°C° 0 mm 5 mps 637 mmHg 20%
    15:00 +32°C° 0 mm 5 mps 636 mmHg 21%
    16:00 +30°C° 0 mm 6 mps 636 mmHg 22%
    17:00 +30°C° 0 mm 6 mps 636 mmHg 23%
    18:00 +28°C° 0 mm 6 mps 636 mmHg 27%
    19:00 +27°C° 0 mm 6 mps 636 mmHg 32%
    20:00 +24°C° 0 mm 6 mps 636 mmHg 37%
    21:00 +23°C° 0 mm 5 mps 636 mmHg 40%
    22:00 +22°C° 0 mm 4 mps 635 mmHg 43%
    23:00 +21°C° 0 mm 4 mps 635 mmHg 46%

    21 July, Saturday

    Time Temperature Precipitation Wind Pressure Humidity
    00:00 +21°C° 0 mm 4 mps 635 mmHg 47%
    01:00 +20°C° 0 mm 3 mps 635 mmHg 48%
    02:00 +20°C° 0 mm 3 mps 635 mmHg 49%
    03:00 +19°C° 0 mm 3 mps 635 mmHg 50%
    04:00 +19°C° 0 mm 2 mps 634 mmHg 50%
    05:00 +18°C° 0 mm 2 mps 634 mmHg 51%
    06:00 +19°C° 0 mm 2 mps 635 mmHg 46%
    07:00 +20°C° 0 mm 2 mps 635 mmHg 41%
    08:00 +21°C° 0 mm 2 mps 636 mmHg 36%
    09:00 +24°C° 0 mm 2 mps 636 mmHg 32%
    10:00 +25°C° 0 mm 3 mps 636 mmHg 27%
    11:00 +27°C° 0 mm 3 mps 637 mmHg 22%
    12:00 +28°C° 0 mm 3 mps 637 mmHg 20%
    13:00 +29°C° 0 mm 4 mps 636 mmHg 19%
    14:00 +30°C° 0 mm 4 mps 636 mmHg 17%
    15:00 +29°C° 0 mm 5 mps 636 mmHg 18%
    16:00 +29°C° 0 mm 5 mps 636 mmHg 19%
    17:00 +29°C° 0 mm 6 mps 636 mmHg 20%
    18:00 +27°C° 0 mm 5 mps 636 mmHg 24%
    19:00 +26°C° 0 mm 5 mps 636 mmHg 28%
    20:00 +25°C° 0 mm 5 mps 635 mmHg 32%
    21:00 +23°C° 0 mm 4 mps 635 mmHg 35%
    22:00 +22°C° 0 mm 4 mps 635 mmHg 37%
    23:00 +22°C° 0 mm 3 mps 635 mmHg 39%

    22 July, Sunday

    Time Temperature Precipitation Wind Pressure Humidity
    00:00 +21°C° 0 mm 3 mps 635 mmHg 40%
    01:00 +21°C° 0 mm 3 mps 635 mmHg 40%
    02:00 +20°C° 0 mm 3 mps 634 mmHg 40%
    03:00 +19°C° 0 mm 2 mps 634 mmHg 42%
    04:00 +19°C° 0 mm 2 mps 634 mmHg 44%
    05:00 +18°C° 0 mm 2 mps 634 mmHg 46%
    06:00 +19°C° 0 mm 2 mps 634 mmHg 44%
    07:00 +20°C° 0 mm 2 mps 635 mmHg 43%
    08:00 +21°C° 0 mm 2 mps 635 mmHg 41%
    09:00 +24°C° 0 mm 2 mps 635 mmHg 36%
    10:00 +25°C° 0 mm 2 mps 636 mmHg 31%
    11:00 +26°C° 0 mm 2 mps 636 mmHg 26%
    12:00 +27°C° 0 mm 3 mps 636 mmHg 24%
    13:00 +28°C° 0 mm 3 mps 636 mmHg 21%
    14:00 +29°C° 0 mm 4 mps 635 mmHg 19%
    15:00 +29°C° 0 mm 4 mps 635 mmHg 19%
    16:00 +29°C° 0 mm 4 mps 635 mmHg 19%
    17:00 +29°C° 0 mm 5 mps 635 mmHg 19%
    18:00 +28°C° 0 mm 5 mps 635 mmHg 24%
    19:00 +27°C° 0 mm 4 mps 635 mmHg 28%
    20:00 +26°C° 0 mm 4 mps 635 mmHg 32%
    21:00 +25°C° 0 mm 4 mps 635 mmHg 37%
    22:00 +24°C° 0 mm 3 mps 635 mmHg 42%
    23:00 +22°C° 0 mm 3 mps 635 mmHg 48%

    23 July, Monday

    Time Temperature Precipitation Wind Pressure Humidity
    00:00 +22°C° 0 mm 3 mps 634 mmHg 49%
    01:00 +21°C° 0 mm 2 mps 634 mmHg 50%
    02:00 +21°C° 0 mm 2 mps 634 mmHg 52%
    03:00 +20°C° 0 mm 2 mps 634 mmHg 50%
    04:00 +21°C° 0 mm 1 mps 634 mmHg 49%
    05:00 +20°C° 0 mm 1 mps 634 mmHg 47%
    06:00 +21°C° 0 mm 1 mps 634 mmHg 43%
    07:00 +23°C° 0 mm 2 mps 635 mmHg 38%
    08:00 +24°C° 0 mm 2 mps 635 mmHg 33%
    09:00 +25°C° 0 mm 2 mps 636 mmHg 30%
    10:00 +27°C° 0 mm 2 mps 636 mmHg 27%
    11:00 +28°C° 0 mm 2 mps 636 mmHg 24%
    12:00 +29°C° 0 mm 3 mps 636 mmHg 23%
    13:00 +30°C° 0 mm 4 mps 636 mmHg 21%
    14:00 +30°C° 0 mm 4 mps 636 mmHg 20%
    15:00 +30°C° 0 mm 4 mps 635 mmHg 20%
    16:00 +30°C° 0 mm 5 mps 635 mmHg 21%
    17:00 +30°C° 0 mm 5 mps 635 mmHg 21%
    18:00 +29°C° 0 mm 5 mps 635 mmHg 25%
    19:00 +28°C° 0 mm 5 mps 635 mmHg 28%
    20:00 +27°C° 0 mm 5 mps 636 mmHg 32%
    21:00 +26°C° 0 mm 4 mps 635 mmHg 35%
    22:00 +25°C° 0 mm 4 mps 635 mmHg 37%
    23:00 +24°C° 0 mm 3 mps 635 mmHg 40%
    Show more